Weather History for Malaga, Spain

Change the Weather History Date:

Sunday, March 10, 2013

  Actual Average Record
Temperature  
Mean Temperature 56 °F -  
Max Temperature 64 °F 66 °F 71 °F (1998)
Min Temperature 48 °F 49 °F 39 °F (2005)
Degree Days  
Heating Degree Days 9    
Growing Degree Days 6 (Base 50)    
Moisture  
Dew Point 47 °F    
Average Humidity 75    
Maximum Humidity 94    
Minimum Humidity 37    
Precipitation  
Precipitation 0.08 in 0.07 in - ()
Sea Level Pressure  
Sea Level Pressure 29.88 in    
Wind  
Wind Speed 2 mph ()    
Max Wind Speed 7 mph    
Max Gust Speed 18 mph    
Visibility 6.7 miles    
Events Rain    
Averages and records for this station are not official NWS values.
T = Trace of Precipitation, MM = Missing Value Source: Averaged Metar Reports

Daily Weather History Graph

Daily Weather History Graph

Search for Another Location

Airport:

Trip Planner

Search our weather history database for the weather conditions in past years. The results will help you decide how hot, cold, wet, or windy it might be!

Date:

Astronomy

Mar. 10, 2013 Rise Set
Actual Time 7:36 AM CET 7:20 PM CET
Civil Twilight 7:10 AM CET 7:46 PM CET
Nautical Twilight 6:40 AM CET 8:16 PM CET
Astronomical Twilight 6:10 AM CET 8:46 PM CET
Moon 6:26 AM CET (3/10) 6:13 PM CET (3/10)
Length of Visible Light 12h 36m
Length of Day
11h 44m
Waning Crescent, 2% of the Moon is Illuminated
Mar 10
Waning Crescent
Mar 11
New
Mar 19
First Quarter
Mar 27
Full
Apr 3
Last Quarter

Hourly Weather History & Observations

Time (CET) Temp. Dew Point Humidity Pressure Visibility Wind Dir Wind Speed Gust Speed Precip Events Conditions
12:00 AM 50.0 °F 44.6 °F 82% 29.89 in 6.2 mi West 3.5 mph - N/A   Partly Cloudy
12:30 AM 53.6 °F 44.6 °F 72% 29.89 in 6.2 mi Calm Calm - N/A   Partly Cloudy
1:00 AM 54 °F 47 °F 70% 29.90 in 12 mi Calm Calm - -   Scattered Clouds
1:00 AM 53.6 °F 44.6 °F 72% 29.89 in 6.2 mi Calm Calm - N/A   Partly Cloudy
1:30 AM 51.8 °F 44.6 °F 76% 29.89 in 6.2 mi Variable 1.2 mph - N/A   Partly Cloudy
2:00 AM 51.8 °F 44.6 °F 76% 29.89 in 6.2 mi Calm Calm - N/A   Partly Cloudy
2:30 AM 50.0 °F 44.6 °F 82% 29.89 in 6.2 mi Calm Calm - N/A   Partly Cloudy
3:00 AM 50.0 °F 44.6 °F 82% 29.89 in 6.2 mi WNW 2.3 mph - N/A   Partly Cloudy
3:30 AM 48.2 °F 44.6 °F 87% 29.86 in 6.2 mi Variable 1.2 mph - N/A   Partly Cloudy
4:00 AM 48.2 °F 44.6 °F 87% 29.86 in 6.2 mi Calm Calm - N/A   Partly Cloudy
4:30 AM 48.2 °F 44.6 °F 87% 29.86 in 6.2 mi WNW 2.3 mph - N/A   Partly Cloudy
5:00 AM 50.0 °F 44.6 °F 82% 29.86 in 6.2 mi Variable 2.3 mph - N/A   Scattered Clouds
5:30 AM 50.0 °F 46.4 °F 87% 29.86 in 6.2 mi WNW 3.5 mph - N/A Rain Light Rain
6:00 AM 50.0 °F 46.4 °F 87% 29.86 in 6.2 mi WNW 6.9 mph - N/A   Mostly Cloudy
6:30 AM 51.8 °F 46.4 °F 82% 29.86 in 6.2 mi SSE 1.2 mph - N/A   Mostly Cloudy
7:00 AM 51 °F 47 °F 81% 29.88 in 12 mi 2.3 mph - -   Partly Cloudy
7:00 AM 48.2 °F 46.4 °F 93% 29.86 in 6.2 mi Variable 2.3 mph - N/A   Mostly Cloudy
7:30 AM 50.0 °F 46.4 °F 87% 29.86 in 6.2 mi Variable 2.3 mph - N/A   Mostly Cloudy
8:00 AM 48.2 °F 46.4 °F 93% 29.86 in 6.2 mi Variable 1.2 mph - N/A   Light Drizzle
8:30 AM 50.0 °F 48.2 °F 94% 29.89 in 6.2 mi Variable 2.3 mph - N/A   Scattered Clouds
9:00 AM 53.6 °F 50.0 °F 88% 29.89 in 6.2 mi Variable 1.2 mph - N/A   Scattered Clouds
9:30 AM 53.6 °F 50.0 °F 88% 29.89 in 6.2 mi Calm Calm - N/A   Scattered Clouds
10:00 AM 57.2 °F 48.2 °F 72% 29.89 in 6.2 mi Calm Calm - N/A   Scattered Clouds
10:30 AM 57.2 °F 50.0 °F 77% 29.89 in 6.2 mi Variable 2.3 mph - N/A   Scattered Clouds
10:42 AM 55.4 °F 50.0 °F 82% 29.92 in 6.2 mi Calm Calm - N/A Rain Rain
11:00 AM 55.4 °F 50.0 °F 82% 29.92 in 6.2 mi Variable 2.3 mph - N/A   Scattered Clouds
11:30 AM 59.0 °F 51.8 °F 77% 29.92 in 6.2 mi West 1.2 mph - N/A   Scattered Clouds
12:00 PM 57.2 °F 50.0 °F 77% 29.89 in 6.2 mi Calm Calm - N/A   Scattered Clouds
12:30 PM 59.0 °F 51.8 °F 77% 29.89 in 6.2 mi SSE 4.6 mph - N/A   Scattered Clouds
1:00 PM 62 °F 49 °F 53% 29.90 in 9 mi 2.3 mph - -   Partly Cloudy
1:00 PM 62.6 °F 50.0 °F 63% 29.89 in 6.2 mi Variable 2.3 mph - N/A   Scattered Clouds
1:30 PM 62.6 °F 48.2 °F 59% 29.89 in 6.2 mi NNW 6.9 mph - N/A   Scattered Clouds
2:00 PM 60.8 °F 48.2 °F 63% 29.89 in 6.2 mi Variable 2.3 mph - N/A   Scattered Clouds
2:16 PM 59.0 °F 51.8 °F 77% 29.89 in 6.2 mi West 3.5 mph - N/A Rain Rain
2:30 PM 57.2 °F 51.8 °F 82% 29.89 in 6.2 mi SSE 5.8 mph - N/A Rain Light Rain
3:00 PM 59.0 °F 53.6 °F 82% 29.86 in 6.2 mi SE 3.5 mph - N/A   Scattered Clouds
3:30 PM 60.8 °F 53.6 °F 77% 29.86 in 6.2 mi Variable 2.3 mph - N/A   Scattered Clouds
4:00 PM 60.8 °F 50.0 °F 68% 29.86 in 6.2 mi Calm Calm - N/A Rain Rain Showers
4:30 PM 59.0 °F 50.0 °F 72% 29.86 in 6.2 mi West 4.6 mph - N/A   Scattered Clouds
5:00 PM 59.0 °F 51.8 °F 77% 29.83 in 6.2 mi SSE 3.5 mph - N/A   Scattered Clouds
5:30 PM 59.0 °F 50.0 °F 72% 29.83 in 6.2 mi ESE 4.6 mph - N/A   Scattered Clouds
6:00 PM 62.6 °F 48.2 °F 59% 29.83 in 6.2 mi South 3.5 mph - N/A   Scattered Clouds
6:30 PM 62.6 °F 42.8 °F 48% 29.83 in 6.2 mi WSW 6.9 mph 18.4 mph N/A   Scattered Clouds
7:00 PM 62 °F 42 °F 37% 29.87 in 19 mi WSW 5.8 mph - -   Partly Cloudy
7:00 PM 60.8 °F 42.8 °F 52% 29.86 in 6.2 mi WSW 5.8 mph - N/A   Scattered Clouds
7:30 PM 60.8 °F 46.4 °F 59% 29.86 in 6.2 mi WSW 6.9 mph - N/A   Scattered Clouds
8:00 PM 59.0 °F 42.8 °F 55% 29.89 in 6.2 mi SW 5.8 mph - N/A   Scattered Clouds
8:30 PM 57.2 °F 42.8 °F 59% 29.89 in 6.2 mi Variable 1.2 mph - N/A   Scattered Clouds
9:00 PM 55.4 °F 44.6 °F 67% 29.92 in 6.2 mi Calm Calm - N/A   Scattered Clouds
9:30 PM 53.6 °F 44.6 °F 72% 29.92 in 6.2 mi Variable 1.2 mph - N/A   Scattered Clouds
10:00 PM 53.6 °F 46.4 °F 77% 29.92 in 6.2 mi Variable 1.2 mph - N/A   Scattered Clouds
10:30 PM 51.8 °F 44.6 °F 76% 29.92 in 6.2 mi Calm Calm - N/A   Scattered Clouds
11:00 PM 53.6 °F 44.6 °F 72% 29.92 in 6.2 mi Variable 2.3 mph - N/A   Scattered Clouds
11:30 PM 51.8 °F 44.6 °F 76% 29.95 in 6.2 mi South 3.5 mph - N/A   Scattered Clouds